QPF
0.07 0.07 0.06 0.06 0.08 0.10 0.10 0.08 0.08 0.07 0.06 0.03 0.02 0.01 0.01 0.01 0.01 0.01 0.02 0.04 0.05 0.05 0.04 0.04 0.03 0.02 0.02 0.02 0.02 0.02 0.02 0.02 0.03 0.02 0.03 0.03 0.03 0.03 0.02 0.02 0.01 0.01 0.01
0.06 0.07 0.07 0.06 0.07 0.09 0.09 0.07 0.06 0.06 0.06 0.04 0.03 0.02 0.02 0.01 0.01 0.01 0.01 0.01 0.02 0.03 0.04 0.04 0.04 0.04 0.03 0.02 0.03 0.03 0.02 0.03 0.03 0.02 0.02 0.03 0.03 0.03 0.03 0.03 0.03 0.02 0.02
0.04 0.06 0.08 0.08 0.08 0.08 0.08 0.07 0.06 0.05 0.05 0.06 0.05 0.04 0.02 0.01 0.01 0.01 0.01 0.01 0.01 0.01 0.02 0.02 0.02 0.03 0.03 0.03 0.03 0.03 0.03 0.03 0.03 0.03 0.03 0.03 0.04 0.04 0.03 0.03 0.03 0.03 0.03
0.02 0.04 0.06 0.07 0.09 0.08 0.06 0.06 0.06 0.05 0.04 0.04 0.04 0.05 0.04 0.03 0.02 0.02 0.01 0.01 0.01 0.01 0.01 0.01 0.01 0.02 0.02 0.03 0.03 0.03 0.03 0.04 0.04 0.03 0.04 0.04 0.04 0.04 0.04 0.04 0.04 0.03 0.03
0.01 0.02 0.04 0.06 0.07 0.08 0.07 0.05 0.04 0.05 0.04 0.03 0.04 0.05 0.06 0.05 0.04 0.03 0.03 0.02 0.02 0.01 0.02 0.02 0.02 0.02 0.02 0.02 0.03 0.03 0.03 0.04 0.04 0.04 0.04 0.04 0.04 0.04 0.04 0.04 0.04 0.03 0.03
0.01 0.02 0.03 0.05 0.05 0.04 0.04 0.04 0.04 0.04 0.04 0.04 0.05 0.06 0.06 0.06 0.07 0.06 0.04 0.02 0.02 0.02 0.02 0.02 0.02 0.03 0.03 0.03 0.03 0.04 0.05 0.04 0.04 0.04 0.04 0.04 0.04 0.04 0.04 0.03 0.03 0.03 0.02
0.01 0.02 0.03 0.04 0.04 0.03 0.03 0.02 0.03 0.03 0.03 0.04 0.04 0.04 0.04 0.05 0.06 0.07 0.07 0.04 0.03 0.04 0.04 0.04 0.04 0.03 0.04 0.04 0.03 0.04 0.05 0.05 0.04 0.04 0.04 0.04 0.04 0.04 0.04 0.04 0.03 0.03 0.02
0.02 0.02 0.02 0.03 0.04 0.03 0.03 0.02 0.02 0.02 0.02 0.02 0.02 0.02 0.02 0.03 0.04 0.05 0.07 0.06 0.05 0.05 0.05 0.04 0.04 0.03 0.03 0.03 0.03 0.03 0.03 0.04 0.04 0.04 0.04 0.04 0.04 0.04 0.04 0.04 0.03 0.03 0.03
0.02 0.02 0.02 0.02 0.04 0.04 0.04 0.02 0.01 0.01 0.01 0.01 0.01 0.01 0.01 0.02 0.03 0.03 0.04 0.05 0.05 0.05 0.04 0.04 0.04 0.03 0.03 0.03 0.02 0.02 0.02 0.02 0.03 0.03 0.03 0.03 0.03 0.04 0.04 0.04 0.04 0.04 0.03
0.02 0.01 0.02 0.02 0.03 0.03 0.04 0.03 0.02 0.01 0.01 0.01 0.01 0.01 0.01 0.01 0.02 0.02 0.02 0.02 0.02 0.02 0.02 0.02 0.02 0.03 0.04 0.04 0.02 0.02 0.02 0.01 0.01 0.02 0.02 0.02 0.02 0.02 0.02 0.02 0.02 0.03 0.02
0.01 0.02 0.02 0.03 0.03 0.03 0.04 0.04 0.02 0.01 0.01 0.01 0.01 0.01 0.01 0.01 0.01 0.01 0.02 0.01 0.01 0.01 0.01 0.01 0.01 0.02 0.03 0.03 0.02 0.02 0.01 0.02 0.01 0.02 0.02 0.01 0.01 0.01 0.01 0.02 0.02 0.02 0.02
0.01 0.02 0.02 0.03 0.03 0.04 0.04 0.04 0.03 0.02 0.01 0.01 0.01 0.01 0.01 0.01 0.01 0.01 0.01 0.01 0.01 0.01 0.01 0.01 0.01 0.02 0.02 0.02 0.02 0.02 0.02 0.02 0.02 0.02 0.02 0.02 0.01 0.01 0.01 0.01 0.01 0.02 0.02
0.02 0.02 0.03 0.03 0.03 0.04 0.04 0.03 0.03 0.02 0.02 0.01 0.01 0.01 0.01 0.01 0.01 0.01 0.01 0.01 0.01 0.02 0.02 0.01 0.01 0.01 0.02 0.02 0.02 0.02 0.02 0.02 0.02 0.02 0.02 0.02 0.02 0.01 0.01 0.02 0.02 0.02 0.01
0.02 0.02 0.02 0.03 0.03 0.03 0.04 0.03 0.03 0.02 0.02 0.02 0.02 0.01 0.01 0.01 0.01 0.01 0.01 0.01 0.01 0.02 0.02 0.02 0.01 0.01 0.01 0.02 0.03 0.03 0.03 0.02 0.03 0.03 0.02 0.02 0.02 0.02 0.02 0.02 0.02 0.02 0.02
0.02 0.02 0.02 0.02 0.02 0.02 0.03 0.02 0.03 0.03 0.02 0.02 0.02 0.02 0.02 0.01 0.01 0.01 0.02 0.01 0.01 0.02 0.01 0.01 0.01 0.02 0.02 0.01 0.02 0.02 0.02 0.03 0.03 0.03 0.02 0.02 0.02 0.02 0.02 0.02 0.02 0.02 0.02
0.02 0.02 0.02 0.02 0.01 0.02 0.03 0.02 0.02 0.03 0.03 0.03 0.02 0.02 0.01 0.01 0.01 0.01 0.01 0.01 0.01 0.01 0.01 0.01 0.01 0.02 0.02 0.02 0.01 0.02 0.02 0.02 0.02 0.02 0.02 0.02 0.02 0.02 0.02 0.02 0.02 0.02 0.02
0.02 0.02 0.02 0.01 0.01 0.01 0.02 0.02 0.02 0.02 0.03 0.03 0.02 0.02 0.01 0.01 0.01 0.01 0.01 0.01 0.01 0.01 0.01 0.01 0.01 0.01 0.01 0.02 0.02 0.02 0.02 0.02 0.02 0.02 0.02 0.02 0.02 0.02 0.03 0.03 0.03 0.02 0.02
0.03 0.03 0.03 0.02 0.01 0.01 0.02 0.02 0.02 0.02 0.02 0.02 0.02 0.02 0.01 0.01 0.01 0.01 0.01 0.01 0.01 0.01 0.01 0.01 0.01 0.01 0.01 0.01 0.02 0.02 0.02 0.02 0.02 0.02 0.02 0.02 0.02 0.03 0.03 0.03 0.03 0.02 0.02
0.03 0.03 0.03 0.02 0.01 0.01 0.01 0.02 0.02 0.02 0.02 0.02 0.02 0.02 0.02 0.01 0.01 0.01 0.01 0.01 0.01 0.01 0.01 0.01 0.01 0.01 0.01 0.01 0.01 0.02 0.02 0.02 0.02 0.02 0.02 0.02 0.02 0.02 0.02 0.02 0.02 0.02 0.02
0.03 0.03 0.03 0.02 0.02 0.01 0.02 0.02 0.02 0.02 0.02 0.02 0.02 0.02 0.02 0.01 0.01 0.01 0.01 0.01 0.01 0.01 0.01 0.01 0.01 0.01 0.02 0.02 0.02 0.02 0.02 0.02 0.02 0.02 0.02 0.02 0.02 0.02 0.02 0.02 0.02 0.02 0.02
0.03 0.04 0.03 0.02 0.02 0.02 0.02 0.02 0.02 0.02 0.02 0.02 0.02 0.02 0.02 0.02 0.01 0.01 0.01 0.01 0.01 0.01 0.01 0.01 0.01 0.01 0.01 0.02 0.02 0.02 0.02 0.02 0.02 0.02 0.02 0.02 0.02 0.02 0.02 0.02 0.02 0.02 0.03
0.03 0.04 0.04 0.03 0.03 0.03 0.02 0.02 0.02 0.03 0.03 0.02 0.02 0.02 0.02 0.02 0.02 0.01 0.01 0.01 0.01 0.01 0.01 0.01 0.01 0.01 0.01 0.02 0.02 0.02 0.03 0.02 0.02 0.02 0.02 0.02 0.02 0.02 0.02 0.02 0.02 0.02 0.03
0.03 0.03 0.03 0.04 0.04 0.03 0.04 0.03 0.02 0.02 0.03 0.03 0.02 0.02 0.02 0.02 0.02 0.02 0.02 0.01 0.01 0.01 0.01 0.01 0.01 0.01 0.02 0.02 0.02 0.03 0.03 0.03 0.02 0.02 0.03 0.03 0.03 0.03 0.03 0.03 0.02 0.02 0.02
0.02 0.02 0.03 0.03 0.05 0.04 0.04 0.03 0.03 0.02 0.02 0.03 0.03 0.02 0.02 0.02 0.02 0.02 0.02 0.01 0.01 0.02 0.02 0.02 0.02 0.02 0.02 0.02 0.02 0.02 0.03 0.03 0.03 0.03 0.03 0.03 0.03 0.03 0.03 0.03 0.02 0.02 0.02
0.03 0.02 0.02 0.03 0.04 0.04 0.05 0.04 0.03 0.03 0.02 0.02 0.02 0.02 0.02 0.02 0.02 0.02 0.01 0.01 0.01 0.02 0.02 0.02 0.02 0.02 0.02 0.02 0.02 0.03 0.03 0.04 0.04 0.05 0.04 0.04 0.03 0.03 0.03 0.03 0.02 0.02 0.02
0.03 0.03 0.03 0.03 0.04 0.04 0.05 0.05 0.04 0.03 0.02 0.02 0.02 0.02 0.01 0.01 0.01 0.02 0.02 0.02 0.02 0.02 0.02 0.02 0.02 0.02 0.02 0.02 0.03 0.03 0.04 0.04 0.04 0.04 0.04 0.04 0.03 0.03 0.03 0.03 0.02 0.02 0.02
MSLP
1013.15 1013.79 1014.46 1015.15 1015.86 1016.56 1017.23 1017.86 1018.43 1018.95 1019.42 1019.85 1020.26 1020.66 1021.06 1021.47 1021.87 1022.26 1022.61 1022.92 1023.16 1023.34 1023.46 1023.52 1023.53 1023.52 1023.50 1023.47 1023.45 1023.43 1023.42 1023.40 1023.39 1023.37 1023.36 1023.35 1023.34 1023.34 1023.34 1023.31 1023.26 1023.15 1022.97
1013.93 1014.42 1014.97 1015.55 1016.16 1016.77 1017.36 1017.91 1018.40 1018.85 1019.27 1019.65 1020.03 1020.43 1020.84 1021.27 1021.71 1022.15 1022.56 1022.92 1023.22 1023.45 1023.61 1023.71 1023.76 1023.78 1023.78 1023.77 1023.76 1023.74 1023.71 1023.68 1023.64 1023.59 1023.54 1023.50 1023.46 1023.43 1023.41 1023.39 1023.34 1023.25 1023.10
1014.91 1015.25 1015.66 1016.13 1016.63 1017.14 1017.63 1018.09 1018.51 1018.88 1019.22 1019.55 1019.89 1020.25 1020.64 1021.07 1021.52 1021.98 1022.41 1022.80 1023.13 1023.39 1023.58 1023.71 1023.80 1023.86 1023.89 1023.92 1023.94 1023.95 1023.95 1023.94 1023.90 1023.84 1023.78 1023.71 1023.65 1023.59 1023.55 1023.51 1023.46 1023.38 1023.25
1016.00 1016.20 1016.48 1016.84 1017.23 1017.65 1018.05 1018.42 1018.74 1019.03 1019.30 1019.56 1019.84 1020.15 1020.50 1020.90 1021.32 1021.76 1022.18 1022.56 1022.89 1023.16 1023.37 1023.52 1023.64 1023.74 1023.82 1023.90 1023.98 1024.05 1024.10 1024.12 1024.12 1024.08 1024.02 1023.94 1023.87 1023.79 1023.73 1023.67 1023.61 1023.52 1023.39
1017.09 1017.17 1017.35 1017.61 1017.92 1018.24 1018.56 1018.84 1019.09 1019.30 1019.49 1019.67 1019.88 1020.12 1020.41 1020.75 1021.12 1021.51 1021.89 1022.24 1022.54 1022.79 1023.00 1023.16 1023.31 1023.44 1023.57 1023.71 1023.85 1023.99 1024.10 1024.19 1024.23 1024.24 1024.20 1024.13 1024.05 1023.97 1023.89 1023.81 1023.74 1023.65 1023.51
1018.09 1018.09 1018.19 1018.37 1018.60 1018.85 1019.10 1019.31 1019.48 1019.62 1019.73 1019.84 1019.96 1020.13 1020.35 1020.61 1020.91 1021.23 1021.55 1021.84 1022.10 1022.32 1022.51 1022.68 1022.83 1022.99 1023.16 1023.35 1023.56 1023.76 1023.94 1024.09 1024.20 1024.25 1024.25 1024.21 1024.14 1024.05 1023.97 1023.89 1023.80 1023.71 1023.58
1018.92 1018.87 1018.91 1019.03 1019.21 1019.40 1019.58 1019.73 1019.84 1019.91 1019.95 1019.98 1020.03 1020.12 1020.26 1020.44 1020.67 1020.91 1021.16 1021.40 1021.61 1021.80 1021.96 1022.11 1022.27 1022.44 1022.64 1022.87 1023.11 1023.37 1023.60 1023.81 1023.97 1024.07 1024.11 1024.10 1024.06 1023.99 1023.92 1023.84 1023.77 1023.68 1023.57
1019.53 1019.44 1019.44 1019.52 1019.65 1019.80 1019.93 1020.02 1020.07 1020.08 1020.06 1020.03 1020.02 1020.04 1020.11 1020.23 1020.38 1020.56 1020.76 1020.94 1021.11 1021.26 1021.39 1021.52 1021.67 1021.84 1022.04 1022.28 1022.55 1022.83 1023.10 1023.34 1023.53 1023.67 1023.76 1023.79 1023.78 1023.74 1023.70 1023.66 1023.61 1023.55 1023.48
1019.91 1019.79 1019.76 1019.80 1019.89 1019.99 1020.07 1020.12 1020.12 1020.08 1020.01 1019.93 1019.87 1019.84 1019.86 1019.93 1020.04 1020.18 1020.33 1020.48 1020.62 1020.74 1020.85 1020.96 1021.08 1021.24 1021.43 1021.65 1021.91 1022.19 1022.46 1022.71 1022.93 1023.09 1023.21 1023.28 1023.31 1023.32 1023.33 1023.33 1023.33 1023.33 1023.31
1020.06 1019.91 1019.85 1019.86 1019.90 1019.96 1019.99 1020.00 1019.96 1019.88 1019.77 1019.66 1019.57 1019.52 1019.51 1019.55 1019.64 1019.76 1019.89 1020.02 1020.14 1020.24 1020.34 1020.43 1020.53 1020.66 1020.81 1021.01 1021.24 1021.48 1021.74 1021.98 1022.20 1022.38 1022.52 1022.63 1022.71 1022.78 1022.84 1022.90 1022.96 1023.02 1023.07
1020.01 1019.83 1019.74 1019.70 1019.70 1019.71 1019.71 1019.67 1019.59 1019.49 1019.36 1019.24 1019.14 1019.07 1019.06 1019.10 1019.19 1019.30 1019.43 1019.56 1019.68 1019.78 1019.86 1019.93 1020.01 1020.10 1020.22 1020.37 1020.56 1020.76 1020.98 1021.20 1021.41 1021.60 1021.76 1021.91 1022.04 1022.16 1022.28 1022.40 1022.53 1022.66 1022.77
1019.80 1019.60 1019.46 1019.38 1019.34 1019.30 1019.25 1019.18 1019.08 1018.96 1018.82 1018.70 1018.59 1018.54 1018.53 1018.58 1018.67 1018.80 1018.94 1019.07 1019.20 1019.30 1019.38 1019.44 1019.50 1019.56 1019.64 1019.75 1019.88 1020.04 1020.22 1020.42 1020.61 1020.81 1020.99 1021.17 1021.34 1021.52 1021.69 1021.88 1022.06 1022.24 1022.41
1019.48 1019.24 1019.07 1018.95 1018.86 1018.78 1018.70 1018.60 1018.47 1018.34 1018.20 1018.08 1017.99 1017.94 1017.94 1018.00 1018.10 1018.24 1018.39 1018.54 1018.67 1018.77 1018.85 1018.91 1018.95 1018.99 1019.03 1019.11 1019.20 1019.33 1019.48 1019.66 1019.85 1020.04 1020.25 1020.46 1020.67 1020.88 1021.10 1021.33 1021.55 1021.77 1021.98
1019.06 1018.80 1018.60 1018.44 1018.32 1018.21 1018.09 1017.97 1017.84 1017.70 1017.56 1017.43 1017.35 1017.30 1017.31 1017.37 1017.48 1017.62 1017.77 1017.92 1018.05 1018.16 1018.24 1018.29 1018.32 1018.35 1018.38 1018.43 1018.51 1018.61 1018.75 1018.92 1019.11 1019.32 1019.54 1019.77 1020.01 1020.26 1020.51 1020.76 1021.01 1021.24 1021.46
1018.56 1018.30 1018.08 1017.91 1017.76 1017.63 1017.50 1017.36 1017.22 1017.07 1016.92 1016.79 1016.70 1016.65 1016.65 1016.70 1016.79 1016.92 1017.06 1017.20 1017.33 1017.43 1017.51 1017.56 1017.59 1017.62 1017.65 1017.70 1017.77 1017.88 1018.02 1018.19 1018.39 1018.61 1018.85 1019.11 1019.37 1019.63 1019.89 1020.15 1020.40 1020.63 1020.85
1017.99 1017.73 1017.52 1017.35 1017.19 1017.06 1016.92 1016.77 1016.62 1016.46 1016.31 1016.17 1016.06 1015.99 1015.96 1015.98 1016.05 1016.15 1016.26 1016.38 1016.50 1016.59 1016.67 1016.73 1016.76 1016.80 1016.84 1016.90 1016.98 1017.10 1017.25 1017.44 1017.66 1017.90 1018.16 1018.43 1018.70 1018.96 1019.23 1019.48 1019.72 1019.95 1020.15
1017.32 1017.10 1016.91 1016.75 1016.62 1016.48 1016.35 1016.20 1016.04 1015.87 1015.70 1015.54 1015.40 1015.30 1015.24 1015.23 1015.25 1015.32 1015.40 1015.50 1015.60 1015.68 1015.76 1015.81 1015.86 1015.91 1015.96 1016.04 1016.14 1016.28 1016.45 1016.66 1016.90 1017.15 1017.42 1017.70 1017.97 1018.24 1018.50 1018.74 1018.97 1019.19 1019.39
1016.57 1016.39 1016.23 1016.11 1015.99 1015.88 1015.75 1015.60 1015.44 1015.25 1015.06 1014.88 1014.71 1014.58 1014.49 1014.44 1014.43 1014.46 1014.52 1014.59 1014.67 1014.75 1014.82 1014.88 1014.93 1014.99 1015.06 1015.15 1015.27 1015.43 1015.61 1015.83 1016.08 1016.35 1016.63 1016.91 1017.19 1017.46 1017.71 1017.96 1018.18 1018.40 1018.61
1015.70 1015.57 1015.47 1015.38 1015.30 1015.20 1015.08 1014.93 1014.76 1014.57 1014.36 1014.16 1013.98 1013.82 1013.70 1013.63 1013.60 1013.61 1013.65 1013.71 1013.77 1013.84 1013.91 1013.97 1014.02 1014.09 1014.16 1014.26 1014.39 1014.55 1014.75 1014.98 1015.23 1015.51 1015.79 1016.08 1016.37 1016.64 1016.90 1017.15 1017.39 1017.62 1017.86
1014.72 1014.64 1014.59 1014.54 1014.48 1014.40 1014.29 1014.15 1013.98 1013.78 1013.56 1013.35 1013.16 1013.00 1012.88 1012.81 1012.77 1012.78 1012.82 1012.87 1012.94 1013.00 1013.06 1013.12 1013.17 1013.23 1013.30 1013.39 1013.51 1013.67 1013.87 1014.09 1014.35 1014.63 1014.93 1015.23 1015.53 1015.82 1016.10 1016.37 1016.63 1016.90 1017.17
1013.64 1013.61 1013.59 1013.57 1013.53 1013.46 1013.36 1013.22 1013.05 1012.85 1012.64 1012.44 1012.26 1012.12 1012.02 1011.97 1011.96 1011.98 1012.03 1012.10 1012.17 1012.24 1012.29 1012.34 1012.38 1012.42 1012.47 1012.55 1012.66 1012.80 1012.99 1013.21 1013.47 1013.76 1014.07 1014.39 1014.71 1015.02 1015.34 1015.64 1015.95 1016.25 1016.57
1012.47 1012.47 1012.47 1012.47 1012.44 1012.37 1012.27 1012.13 1011.96 1011.78 1011.59 1011.42 1011.27 1011.17 1011.12 1011.11 1011.14 1011.20 1011.28 1011.37 1011.46 1011.52 1011.57 1011.61 1011.63 1011.64 1011.68 1011.73 1011.82 1011.95 1012.12 1012.34 1012.61 1012.91 1013.24 1013.58 1013.94 1014.29 1014.65 1015.00 1015.35 1015.69 1016.05
1011.24 1011.24 1011.25 1011.24 1011.21 1011.14 1011.03 1010.89 1010.74 1010.57 1010.42 1010.29 1010.20 1010.15 1010.16 1010.21 1010.30 1010.41 1010.53 1010.65 1010.75 1010.82 1010.86 1010.88 1010.88 1010.87 1010.88 1010.91 1010.98 1011.10 1011.27 1011.50 1011.78 1012.10 1012.46 1012.85 1013.24 1013.64 1014.04 1014.43 1014.82 1015.20 1015.58
1009.96 1009.96 1009.95 1009.93 1009.87 1009.79 1009.68 1009.55 1009.41 1009.27 1009.16 1009.08 1009.05 1009.08 1009.15 1009.27 1009.41 1009.58 1009.74 1009.88 1009.99 1010.06 1010.10 1010.10 1010.08 1010.06 1010.05 1010.07 1010.13 1010.25 1010.44 1010.69 1010.99 1011.35 1011.75 1012.17 1012.61 1013.05 1013.49 1013.92 1014.33 1014.74 1015.13
1008.67 1008.64 1008.60 1008.55 1008.48 1008.39 1008.27 1008.14 1008.02 1007.92 1007.86 1007.84 1007.87 1007.96 1008.10 1008.27 1008.47 1008.68 1008.87 1009.03 1009.15 1009.22 1009.25 1009.25 1009.22 1009.19 1009.18 1009.20 1009.28 1009.42 1009.63 1009.91 1010.26 1010.66 1011.10 1011.56 1012.04 1012.51 1012.98 1013.43 1013.85 1014.26 1014.65
1007.37 1007.31 1007.24 1007.17 1007.07 1006.96 1006.85 1006.74 1006.64 1006.58 1006.56 1006.59 1006.68 1006.82 1007.02 1007.24 1007.47 1007.71 1007.92 1008.09 1008.22 1008.29 1008.32 1008.32 1008.30 1008.28 1008.28 1008.33 1008.44 1008.61 1008.86 1009.19 1009.58 1010.02 1010.50 1011.00 1011.51 1012.00 1012.48 1012.93 1013.35 1013.75 1014.12
Thickness
5501 5503 5504 5505 5505 5506 5506 5506 5507 5507 5508 5508 5509 5510 5510 5510 5511 5512 5511 5511 5512 5512 5511 5511 5510 5510 5510 5510 5510 5510 5510 5511 5512 5512 5509 5506 5504 5502 5500 5499 5498 5497 5496
5490 5492 5493 5494 5495 5496 5496 5497 5497 5498 5498 5498 5499 5500 5500 5501 5502 5502 5502 5502 5503 5503 5502 5501 5501 5500 5501 5501 5500 5500 5500 5500 5500 5500 5498 5495 5493 5491 5489 5487 5486 5484 5484
5480 5481 5483 5485 5486 5486 5487 5487 5487 5488 5488 5489 5489 5490 5491 5492 5492 5492 5493 5493 5493 5494 5493 5492 5492 5491 5492 5491 5490 5490 5489 5488 5488 5487 5486 5483 5481 5478 5477 5476 5474 5473 5472
5470 5472 5473 5475 5476 5476 5477 5477 5478 5478 5479 5479 5480 5481 5482 5483 5483 5483 5484 5484 5484 5484 5483 5483 5482 5482 5483 5482 5481 5480 5479 5478 5477 5476 5474 5472 5470 5467 5466 5465 5463 5462 5461
5460 5461 5463 5463 5465 5466 5467 5467 5468 5469 5469 5470 5471 5472 5473 5473 5474 5474 5475 5475 5475 5475 5474 5474 5473 5473 5472 5471 5471 5470 5469 5468 5467 5466 5465 5462 5460 5457 5455 5455 5453 5451 5451
5449 5451 5452 5453 5454 5456 5457 5458 5458 5459 5460 5461 5462 5463 5464 5465 5465 5465 5465 5465 5465 5465 5465 5465 5464 5463 5462 5461 5460 5460 5459 5459 5458 5457 5456 5454 5452 5448 5445 5443 5442 5440 5442
5440 5441 5442 5444 5445 5446 5447 5448 5449 5450 5451 5452 5453 5454 5455 5456 5456 5456 5456 5456 5456 5456 5456 5455 5454 5453 5452 5451 5450 5449 5449 5448 5447 5447 5446 5445 5443 5440 5436 5434 5433 5431 5432
5430 5431 5433 5434 5435 5436 5438 5439 5440 5441 5442 5443 5444 5445 5446 5447 5447 5447 5446 5446 5446 5446 5446 5445 5445 5444 5442 5442 5442 5442 5441 5440 5438 5437 5438 5437 5433 5431 5428 5426 5424 5423 5422
5421 5423 5424 5424 5426 5427 5429 5430 5431 5432 5433 5434 5435 5436 5437 5438 5437 5437 5436 5437 5437 5436 5436 5435 5435 5435 5434 5432 5433 5433 5433 5431 5429 5428 5427 5426 5424 5422 5419 5417 5415 5414 5415
5414 5414 5414 5416 5417 5418 5420 5421 5422 5423 5424 5425 5426 5427 5428 5429 5429 5428 5427 5428 5428 5428 5427 5426 5425 5425 5424 5423 5423 5424 5424 5423 5421 5420 5419 5418 5417 5415 5412 5410 5409 5407 5407
5405 5405 5406 5407 5409 5410 5411 5412 5413 5415 5416 5417 5418 5418 5419 5419 5419 5418 5418 5418 5419 5418 5418 5417 5417 5416 5415 5415 5415 5415 5415 5414 5413 5412 5411 5411 5410 5408 5406 5403 5402 5400 5399
5397 5398 5399 5399 5400 5401 5403 5404 5405 5406 5407 5408 5409 5410 5410 5410 5410 5409 5409 5408 5408 5408 5408 5408 5408 5407 5407 5406 5406 5407 5405 5404 5404 5403 5403 5404 5403 5402 5399 5396 5394 5393 5392
5388 5389 5390 5391 5392 5393 5394 5396 5397 5398 5399 5400 5401 5402 5402 5401 5401 5400 5400 5399 5398 5398 5398 5398 5398 5397 5397 5398 5398 5398 5397 5397 5396 5396 5397 5397 5396 5394 5391 5389 5387 5385 5384
5380 5381 5382 5383 5384 5385 5386 5387 5388 5390 5392 5393 5393 5393 5393 5393 5393 5392 5391 5390 5389 5388 5388 5388 5388 5388 5388 5389 5390 5390 5389 5389 5389 5389 5390 5389 5387 5385 5384 5382 5380 5379 5378
5371 5372 5374 5375 5376 5377 5378 5379 5381 5383 5384 5385 5386 5386 5385 5385 5385 5383 5382 5381 5380 5379 5378 5378 5379 5379 5379 5380 5381 5382 5382 5381 5381 5381 5381 5380 5379 5377 5376 5375 5373 5372 5371
5363 5365 5367 5368 5369 5370 5370 5372 5372 5373 5374 5375 5375 5376 5377 5376 5375 5373 5372 5371 5369 5369 5369 5370 5370 5370 5371 5372 5373 5373 5374 5374 5374 5374 5373 5373 5371 5370 5369 5367 5366 5365 5365
5356 5358 5359 5361 5361 5362 5363 5364 5366 5365 5365 5366 5366 5366 5367 5366 5365 5364 5363 5361 5360 5360 5360 5362 5362 5362 5362 5363 5364 5365 5366 5366 5366 5365 5365 5365 5363 5363 5361 5360 5359 5358 5358
5349 5350 5351 5353 5354 5355 5356 5357 5357 5358 5359 5359 5358 5358 5357 5357 5356 5355 5353 5352 5352 5352 5353 5353 5354 5354 5354 5355 5356 5356 5357 5358 5358 5358 5358 5357 5356 5356 5355 5354 5353 5352 5351
5342 5343 5344 5345 5346 5347 5347 5348 5349 5349 5350 5351 5350 5350 5349 5348 5347 5346 5345 5345 5345 5345 5345 5345 5345 5346 5346 5347 5347 5348 5349 5350 5350 5350 5351 5350 5350 5349 5348 5347 5346 5345 5344
5335 5336 5337 5338 5339 5339 5340 5340 5340 5341 5342 5342 5342 5342 5341 5340 5339 5338 5337 5337 5337 5337 5337 5337 5338 5338 5338 5338 5339 5340 5340 5342 5342 5343 5343 5343 5343 5342 5342 5341 5340 5339 5338
5329 5330 5330 5331 5332 5332 5333 5333 5334 5334 5334 5335 5334 5334 5334 5334 5333 5332 5331 5330 5330 5330 5330 5330 5330 5330 5330 5331 5331 5332 5333 5334 5334 5335 5335 5336 5335 5335 5334 5333 5332 5331 5330
5323 5324 5325 5325 5326 5326 5326 5326 5326 5326 5327 5327 5327 5326 5326 5326 5326 5326 5325 5324 5324 5323 5323 5323 5324 5324 5324 5324 5325 5325 5326 5326 5327 5328 5328 5328 5328 5328 5327 5326 5325 5324 5323
5316 5317 5317 5318 5319 5319 5319 5319 5319 5320 5320 5320 5320 5320 5319 5319 5319 5318 5318 5317 5317 5317 5316 5316 5317 5318 5318 5318 5318 5319 5320 5320 5321 5321 5321 5322 5322 5321 5321 5320 5319 5318 5318
5309 5310 5311 5311 5311 5312 5312 5312 5312 5312 5312 5312 5312 5313 5313 5312 5312 5311 5311 5310 5310 5310 5310 5310 5311 5311 5311 5311 5312 5313 5313 5314 5314 5315 5316 5316 5316 5315 5315 5314 5314 5313 5313
5302 5303 5304 5304 5304 5304 5305 5305 5305 5305 5305 5305 5305 5305 5305 5305 5304 5304 5304 5303 5303 5303 5303 5304 5305 5305 5306 5306 5306 5307 5308 5308 5309 5309 5310 5310 5310 5310 5309 5309 5309 5308 5307
5296 5296 5297 5297 5297 5297 5297 5298 5298 5298 5298 5298 5298 5298 5298 5298 5297 5297 5297 5297 5297 5297 5298 5298 5299 5300 5300 5301 5301 5302 5303 5303 5304 5305 5305 5305 5305 5305 5304 5304 5304 5304 5303